Погода в Гангтоке

Индия     27°19′25″N   88°36′34″E
темп.,
°C
ветер,
м/с
пор.,
м/с
влажн.,
%
обл.,
%
осадки,
мм/ч
давл.,
гПа
погр.,
м
18 сентября, сб
сб1823:30+18ссв1193100 0.1 101011
02:30+18ссв1192100 0.1 100711
05:30+17с119686 0.1 100919
08:30+23ююз11788 0.0 1009460
11:30+26ю226865 0.2 10071134
14:30+24ю228145 1.5 1006704
17:30+20ю119611 2.9 100919
20:30+19всв009747 0.7 101212
19 сентября, вс
вс1923:30+19в009738 0.8 101213
02:30+18св019746 0.0 101011
05:30+18ссв119476 0.1 101112
08:30+20зюз119265 0.1 1013203
11:30+25ююз217437 0.3 1011807
14:30+24ю227460 0.3 10071017
17:30+20ю119535 1.3 100917
20:30+19ю009865 0.4 101315
20 сентября, пн
пн2023:30+19ссв009878 0.9 101229
02:30+19вюв009857 0.1 101115
05:30+19всв009762 0.3 101120
08:30+21юз009257 0.4 1013171
11:30+25ююз227469 0.8 1010940
14:30+24ю228217 3.0 1007587
17:30+20юв119715 6.0 100914
20:30+19св119735 5.5 101218
21 сентября, вт
вт2123:30+18св119670 11.7 101222
02:30+18св119644 3.1 101015
05:30+17ссв119647 3.6 101115
08:30+21з008750 0.1 1012313
11:30+25ююз227270 0.8 1009982
14:30+23ю228431 3.4 1006609
17:30+20ю1297100 9.6 100745
20:30+19ссз0099100 12.4 100932
22 сентября, ср
ср2223:30+19с1198100 24.5 101039
02:30+18с119671 2.4 100816
05:30+17св119632 2.4 100912
08:30+22юз118330 0.1 1010513
11:30+25ю117335 1.2 1008979
14:30+23ю228658 3.3 1007601
17:30+20ююз119574 5.8 100813
20:30+19сз019652 2.8 101112